Location: ??
(35.5672°N, 139.6509°E)
Time: 13:12:01
(UTC+00:00)

ALOS - Pass Details

Date: 03 August 2024
Orbit: 671 x 673 km, 98.0° (Epoch: 09 September)

Event Time Altitude Azimuth Distance (km) Brightness Sun altitude
Rises 16:26:26 0° 29° (NNE) 3,030 6.7 -32.2°
Reaches altitude 10° 16:29:09 10° 45° (NE) 2,111 5.6 -32.0°
Enters shadow 16:32:15 21° 87° (E) 1,497 4.3 -31.7°
